Location: Bonnesvalyn
(49.1218°N, 3.3177°E)
Time: 20:34:40
(UTC+00:00)

Cosmos 1626 Rocket - Pass Details

Date: 09 February 2023
Orbit: 603 x 629 km, 82.5° (Epoch: 21 March)

Event Time Altitude Azimuth Distance (km) Brightness Sun altitude
Rises 17:39:59 0° 158° (SSE) 2,847 6.9 -7.6°
Reaches altitude 10° 17:42:26 10° 146° (SE) 1,952 5.9 -8.0°
Maximum altitude 17:46:03 27° 89° (E) 1,185 4.5 -8.6°
Drops below altitude 10° 17:49:43 10° 31° (NNE) 1,977 5.7 -9.2°
Sets 17:52:12 0° 20° (NNE) 2,892 6.7 -9.6°
